[[{"header":{"parameterUnit":"m.s-1","parameterCategory":2,"la1":30.2991,"la2":30.254,"lo1":-89.0895,"lo2":-89.0444,"dy":0.0017,"dx":0.0017,"nx":28,"ny":28,"refTime":"2025-04-28T03:00:00:Z","depth":"0","parameterNumber":2,"parameterNumberName":"U-component_of_CURRENTS"},"data":[0,0,0,0,0,0,0,0,0,0,0,0,0,0,0,0,0,0,0,0,0,0,0,0,0,0,0,0,0,0,0,0,0,0,0,0,0,0,0,0,0,0,0,0,0,0,0,0,0,0,0,0,0,0,0,0,0,0,0.2531,0.2531,0,0.2535,0.2535,0.2535,0.2511,0.2511,0.251,0.251,0.2489,0.2489,0.2489,0,0,0,0,0,0,0,0,0,0,0,0,0,0.253,0.253,0.2531,0.2531,0.2532,0.2535,0.2535,0.2535,0.2511,0.2511,0.251,0.2509,0.2489,0.2489,0.2489,0,0,0,0,0,0,0,0,0,0,0,0,0,0.2531,0.253,0.2531,0.2521,0.252,0.2535,0.2535,0.2535,0.2511,0.2511,0.251,0.2509,0.2489,0.2489,0.2489,0.2505,0,0,0.2489,0.2489,0,0,0,0,0,0,0,0,0.2531,0.253,0.2523,0.2522,0.2521,0.2523,0.2527,0.2524,0.2512,0.2513,0.251,0.2509,0.25,0.2499,0.25,0.2505,0.2504,0.2489,0.2489,0.2489,0.2489,0,0,0,0,0,0,0,0.2531,0.253,0.2531,0.2523,0.2522,0.2526,0.2525,0.2527,0.251,0.2513,0.2512,0.2515,0.2499,0.25,0.2499,0.2503,0.2489,0.2489,0.2489,0.2489,0.2548,0.255,0,0,0,0,0,0,0.2532,0.253,0.2531,0.2532,0.2526,0.2527,0.2525,0.2522,0.251,0.2508,0.2515,0.2514,0.25,0.2499,0.2498,0.2533,0.2489,0.2489,0.2489,0.2547,0.2549,0.255,0,0,0,0,0,0,0.2532,0.2532,0.2531,0.2532,0.2533,0.2527,0.2524,0.2523,0.2526,0.2512,0.2509,0.252,0.25,0.2498,0.2513,0.2531,0.2489,0.2489,0.2545,0.2547,0.2549,0.2591,0,0,0,0,0,0,0.2532,0.2532,0.2533,0.2532,0.2533,0.2545,0.2525,0.2523,0.2529,0.2527,0.2516,0.2513,0.2499,0.2513,0.2513,0.253,0.2489,0.2543,0.2546,0.2549,0.2588,0.2595,0.2601,0,0,0,0,0,0.2532,0.2537,0.2533,0.2533,0.2533,0.2546,0.2547,0.2539,0.253,0.2538,0.2535,0.2513,0.2532,0.2515,0.2514,0.2531,0.2541,0.2545,0.2548,0.2585,0.2594,0.2601,0,0,0,0,0,0,0.2536,0.2535,0.253,0.2534,0.2542,0.2543,0.255,0.2547,0.2551,0.2549,0.2532,0.253,0.2554,0.2542,0.2523,0.256,0.2534,0.2538,0.2562,0.257,0.2577,0.2573,0.2489,0,0,0,0,0,0.2539,0.2541,0.2544,0.2549,0.2554,0.2554,0.2559,0.2557,0.256,0.2561,0.2554,0.2555,0.2569,0.2567,0.2577,0.2592,0.2582,0.2605,0.2612,0.2617,0.2616,0.2631,0.2639,0.2562,0.2562,0.2562,0,0,0.2541,0.2542,0.2542,0.255,0.2555,0.2566,0.2555,0.2568,0.2578,0.2559,0.2572,0.2581,0.2582,0.2605,0.2613,0.2593,0.2635,0.2621,0.2626,0.2621,0.2636,0.2643,0.265,0.2564,0.2564,0.2564,0,0,0.2547,0.255,0.2552,0.2563,0.2576,0.2581,0.2588,0.2595,0.2598,0.2615,0.2614,0.2635,0.2639,0.2651,0.2655,0.2704,0.2676,0.2708,0.2725,0.2741,0.2747,0.2752,0.2747,0.2751,0.2701,0.2701,0.2701,0,0.2549,0.255,0.2558,0.2567,0.2575,0.2589,0.2597,0.2612,0.2623,0.2633,0.2622,0.2658,0.2661,0.2696,0.2716,0.2717,0.2713,0.2692,0.2748,0.2753,0.2757,0.2751,0.2755,0.2704,0.2703,0.2703,0.2703,0,0.2554,0.2559,0.2567,0.2579,0.2593,0.2608,0.2627,0.2646,0.2652,0.2663,0.2699,0.2711,0.2725,0.2741,0.274,0.2783,0.2765,0.276,0.2723,0.2767,0.2758,0.2761,0.2707,0.2706,0.2706,0.2705,0,0,0.2539,0.2564,0.2564,0.2569,0.2599,0.2608,0.2641,0.2669,0.2687,0.2708,0.2727,0.277,0.2776,0.2783,0.2794,0.2811,0.2845,0.2798,0.2798,0.2784,0.2865,0.2798,0.2795,0.2847,0.2848,0.2849,0.2844,0,0.2536,0.2548,0.2565,0.258,0.2588,0.2618,0.2645,0.2676,0.2702,0.2729,0.276,0.2786,0.2792,0.2802,0.2825,0.2847,0.2856,0.2845,0.2832,0.2831,0.2759,0.2798,0.2658,0.2637,0.2847,0.2847,0.2848,0,0.2523,0.2536,0.2545,0.2574,0.258,0.2595,0.2636,0.2665,0.2721,0.2742,0.2778,0.2797,0.2842,0.2832,0.2877,0.2869,0.2868,0.2877,0.2877,0.28,0.2771,0.2629,0.2635,0.2542,0.2853,0.2852,0.2852,0,0.2489,0.2516,0.2521,0.2531,0.2572,0.2582,0.261,0.2664,0.2693,0.2751,0.277,0.2821,0.2844,0.2864,0.2888,0.2882,0.2924,0.2913,0.2848,0.2843,0.2712,0.2694,0.2617,0.2932,0.2932,0.2932,0.2932,0,0.2468,0.247,0.2503,0.2505,0.2519,0.2557,0.2583,0.2623,0.2682,0.2715,0.277,0.2797,0.2855,0.2884,0.2893,0.2883,0.2925,0.2854,0.2842,0.2723,0.2706,0.2611,0.259,0.2932,0.2932,0.2932,0.2932,0,0.2421,0.2444,0.245,0.2488,0.2498,0.2507,0.2561,0.2584,0.265,0.2692,0.2709,0.279,0.2827,0.2866,0.2905,0.288,0.2783,0.2863,0.2711,0.2681,0.2512,0.2499,0.2336,0.2273,0.2776,0.2775,0.2773,0,0.2396,0.2394,0.2424,0.2426,0.2438,0.2463,0.2481,0.2555,0.2584,0.2678,0.2689,0.2752,0.2771,0.2804,0.2778,0.2762,0.2712,0.2627,0.259,0.2482,0.2459,0.2377,0.2332,0.2433,0.2429,0.2426,0.2423,0,0.2352,0.2361,0.2369,0.2372,0.238,0.2394,0.2426,0.2447,0.2532,0.2566,0.2605,0.2629,0.266,0.2585,0.2583,0.2566,0.2469,0.2557,0.2485,0.2216,0.2081,0.2021,0.2454,0.2394,0.2397,0.2399,0.2401,0.2402,0.2316,0.2306,0.2313,0.2304,0.2313,0.2305,0.2288,0.2328,0.2351,0.2369,0.247,0.2447,0.2433,0.2398,0.2367,0.2205,0.2245,0.2114,0.2117,0.2052,0.1951,0.2313,0.2218,0.2219,0.2221,0.2222,0.2224,0,0.2256,0.2248,0.2243,0.222,0.219,0.2222,0.2229,0.2191,0.2167,0.2209,0.2219,0.2163,0.2074,0.2049,0.1903,0.1781,0.1709,0.1721,0.1575,0.1565,0.191,0.1855,0.1627,0.1627,0.1627,0.1627,0.1627,0.1627,0.2225,0.2188,0.2177,0.2098,0.2079,0.2,0.1981,0.1938,0.1936,0.186,0.1808,0.1825,0.1814,0.1671,0.1499,0.1463,0.135,0.1236,0.1287,0.1531,0.1568,0.1603,0.1545,0.1255,0.1254,0.0844,0.0841,0.0838]},{"header":{"parameterUnit":"m.s-1","parameterCategory":2,"la1":30.2991,"la2":30.254,"lo1":-89.0895,"lo2":-89.0444,"dy":0.0017,"dx":0.0017,"nx":28,"ny":28,"refTime":"2025-04-28T03:00:00:Z","depth":"0","parameterNumber":3,"parameterNumberName":"V-component_of_CURRENTS"},"data":[0,0,0,0,0,0,0,0,0,0,0,0,0,0,0,0,0,0,0,0,0,0,0,0,0,0,0,0,0,0,0,0,0,0,0,0,0,0,0,0,0,0,0,0,0,0,0,0,0,0,0,0,0,0,0,0,0,0,0.0387,0.0388,0,0.0392,0.0392,0.0392,0.0379,0.0379,0.0379,0.0378,0.0371,0.0371,0.0371,0,0,0,0,0,0,0,0,0,0,0,0,0,0.0347,0.0347,0.0387,0.0388,0.0388,0.0392,0.0392,0.0392,0.0379,0.0379,0.0379,0.0378,0.0371,0.0371,0.0371,0,0,0,0,0,0,0,0,0,0,0,0,0,0.0358,0.0348,0.0387,0.0383,0.0383,0.0392,0.0392,0.0392,0.0379,0.0379,0.0378,0.0378,0.0371,0.0371,0.0371,0.038,0,0,0.0371,0.0371,0,0,0,0,0,0,0,0,0.0357,0.0359,0.0383,0.0383,0.0383,0.0386,0.0375,0.0388,0.0379,0.0379,0.0378,0.0378,0.0376,0.0375,0.0376,0.0379,0.0379,0.0371,0.0371,0.0371,0.0371,0,0,0,0,0,0,0,0.0357,0.0359,0.0388,0.0384,0.0383,0.0374,0.0375,0.0377,0.0379,0.0379,0.0379,0.0381,0.0375,0.0375,0.0375,0.0379,0.0371,0.0371,0.0371,0.0371,0.0388,0.0388,0,0,0,0,0,0,0.036,0.0359,0.0388,0.0388,0.037,0.0375,0.0376,0.0384,0.0379,0.0378,0.0382,0.0381,0.0376,0.0375,0.0375,0.04,0.0371,0.0371,0.0371,0.0387,0.0388,0.0388,0,0,0,0,0,0,0.036,0.0363,0.0388,0.0374,0.0377,0.0376,0.0385,0.0385,0.0387,0.0381,0.038,0.0385,0.0375,0.0375,0.0383,0.0399,0.0371,0.0371,0.0387,0.0387,0.0388,0.0442,0,0,0,0,0,0,0.0359,0.0363,0.037,0.0375,0.0378,0.04,0.0386,0.0385,0.039,0.0388,0.0383,0.0382,0.0375,0.0383,0.0383,0.0399,0.0371,0.0386,0.0387,0.0388,0.0439,0.0444,0.0448,0,0,0,0,0,0.0357,0.0372,0.037,0.0373,0.0387,0.04,0.0401,0.0398,0.039,0.0397,0.0393,0.0382,0.0388,0.0384,0.0384,0.04,0.0386,0.0387,0.0388,0.0437,0.0443,0.0448,0,0,0,0,0,0,0.0358,0.0373,0.037,0.0389,0.0395,0.0399,0.0407,0.0402,0.0404,0.0403,0.0392,0.0391,0.0403,0.0393,0.0389,0.0405,0.0383,0.0384,0.0421,0.0426,0.043,0.0439,0.0371,0,0,0,0,0,0.0362,0.0377,0.0385,0.04,0.0406,0.0406,0.041,0.0409,0.0412,0.0412,0.041,0.0405,0.0407,0.0409,0.0408,0.0421,0.0402,0.0428,0.0432,0.0436,0.0442,0.0431,0.0435,0.0391,0.0391,0.0391,0,0,0.0365,0.0376,0.0384,0.0401,0.0406,0.0425,0.0407,0.042,0.0436,0.0412,0.0432,0.0422,0.0413,0.0427,0.0431,0.0421,0.0436,0.0437,0.0441,0.0445,0.0432,0.0436,0.044,0.0392,0.0391,0.0391,0,0,0.0385,0.0392,0.0412,0.0423,0.0437,0.044,0.0446,0.0454,0.0456,0.0471,0.0458,0.046,0.0461,0.0462,0.046,0.0486,0.0459,0.0482,0.0515,0.0504,0.0508,0.0511,0.0484,0.0484,0.0485,0.0485,0.0485,0,0.0388,0.0419,0.0419,0.0443,0.046,0.045,0.0478,0.0481,0.049,0.0502,0.0483,0.049,0.0479,0.0501,0.0506,0.0498,0.048,0.0499,0.051,0.0513,0.0515,0.0487,0.0487,0.0488,0.0488,0.0487,0.0487,0,0.0427,0.045,0.0465,0.0495,0.051,0.0533,0.0541,0.0553,0.0551,0.0556,0.0572,0.0552,0.0556,0.0551,0.0536,0.0552,0.0528,0.0517,0.05,0.0523,0.0491,0.049,0.0492,0.0491,0.049,0.0489,0,0,0.0439,0.0485,0.049,0.0517,0.0542,0.0562,0.0589,0.0618,0.0646,0.0634,0.0663,0.0652,0.0635,0.0631,0.061,0.0598,0.059,0.0566,0.0564,0.0544,0.0553,0.0537,0.0533,0.0581,0.0581,0.0582,0.0522,0,0.0471,0.053,0.0542,0.0598,0.0631,0.0638,0.0669,0.069,0.0699,0.0722,0.0697,0.071,0.0667,0.0666,0.0649,0.0611,0.059,0.0606,0.053,0.0527,0.0515,0.0533,0.0566,0.0517,0.0521,0.052,0.052,0,0.0509,0.0546,0.0607,0.0664,0.068,0.0707,0.0762,0.0789,0.0813,0.0818,0.0817,0.0792,0.0776,0.0729,0.0669,0.0681,0.062,0.058,0.0576,0.0543,0.051,0.0495,0.0514,0.0472,0.0518,0.0518,0.0518,0,0.0531,0.0593,0.0645,0.0665,0.0724,0.0752,0.0783,0.0821,0.0861,0.0876,0.0898,0.0866,0.0855,0.0781,0.0687,0.0678,0.0612,0.0589,0.0514,0.0511,0.0516,0.0513,0.0492,0.054,0.054,0.054,0.054,0,0.0568,0.061,0.066,0.0692,0.0761,0.0786,0.086,0.0884,0.093,0.0991,0.0947,0.0973,0.0867,0.0813,0.0713,0.0613,0.0629,0.0523,0.0501,0.0533,0.0533,0.0478,0.0439,0.0538,0.0538,0.0539,0.0539,0,0.0588,0.0619,0.0685,0.0751,0.0775,0.0825,0.0911,0.0967,0.0999,0.1072,0.1076,0.1056,0.0991,0.0872,0.0755,0.0659,0.0526,0.0509,0.0545,0.0529,0.0421,0.0384,0.032,0.0298,0.0421,0.042,0.042,0,0.0605,0.0641,0.0724,0.0769,0.0801,0.0878,0.0938,0.0995,0.1062,0.113,0.1169,0.1125,0.1117,0.0933,0.0759,0.0585,0.0515,0.0481,0.0472,0.0426,0.0368,0.0348,0.0334,0.049,0.049,0.049,0.0491,0,0.0638,0.0664,0.0719,0.0809,0.0877,0.0964,0.1052,0.1116,0.1195,0.1257,0.1323,0.1317,0.116,0.1013,0.077,0.0641,0.0468,0.0476,0.0431,0.0424,0.0401,0.0367,0.0503,0.0491,0.0491,0.0491,0.0491,0.0491,0.0659,0.07,0.0769,0.0855,0.0935,0.1039,0.1118,0.1218,0.1329,0.1438,0.1432,0.1453,0.1249,0.0937,0.0761,0.0483,0.0469,0.0405,0.0362,0.0345,0.0337,0.0465,0.0429,0.0429,0.0428,0.0428,0.0428,0,0.0682,0.0733,0.0813,0.0916,0.1003,0.1045,0.1188,0.1275,0.1408,0.151,0.1572,0.1494,0.1253,0.0975,0.0608,0.0422,0.0355,0.0315,0.0309,0.0297,0.0419,0.0437,0.0401,0.0401,0.0401,0.0402,0.0402,0.0402,0.0696,0.0765,0.0807,0.0946,0.1023,0.1146,0.123,0.136,0.1463,0.1585,0.1613,0.162,0.1419,0.0823,0.0447,0.035,0.0242,0.0198,0.0134,0.0235,0.0241,0.0247,0.0258,0.0185,0.0185,0.0065,0.0063,0.0062]}],[{"header":{"parameterUnit":"m.s-1","parameterCategory":2,"la1":30.2991,"la2":30.254,"lo1":-89.0895,"lo2":-89.0444,"dy":0.0017,"dx":0.0017,"nx":28,"ny":28,"refTime":"2025-04-28T03:00:00:Z","depth":"2","parameterNumber":2,"parameterNumberName":"U-component_of_CURRENTS"},"data":[0,0,0,0,0,0,0,0,0,0,0,0,0,0,0,0,0,0,0,0,0,0,0,0,0,0,0,0,0,0,0,0,0,0,0,0,0,0,0,0,0,0,0,0,0,0,0,0,0,0,0,0,0,0,0,0,0,0,0.2074,0.2074,0,0.2073,0.2072,0.2072,0.2063,0.2063,0.2063,0.2063,0.2061,0.2061,0.2061,0,0,0,0,0,0,0,0,0,0,0,0,0,0.2084,0.2084,0.2074,0.2074,0.2075,0.2073,0.2072,0.2072,0.2063,0.2063,0.2063,0.2063,0.2061,0.2061,0.2061,0,0,0,0,0,0,0,0,0,0,0,0,0,0.2079,0.2084,0.2074,0.2071,0.2071,0.2073,0.2072,0.2072,0.2064,0.2063,0.2063,0.2063,0.2061,0.2061,0.2061,0.2063,0,0,0.2061,0.2061,0,0,0,0,0,0,0,0,0.208,0.2079,0.2071,0.2071,0.2071,0.2069,0.2075,0.207,0.2064,0.2065,0.2063,0.2063,0.2065,0.2065,0.2062,0.2063,0.2063,0.2061,0.2061,0.2061,0.2061,0,0,0,0,0,0,0,0.208,0.2079,0.2072,0.2072,0.2071,0.2075,0.2074,0.2074,0.2064,0.2065,0.2064,0.2067,0.2065,0.2062,0.2062,0.2063,0.2061,0.2061,0.2061,0.2061,0.2112,0.2114,0,0,0,0,0,0,0.2083,0.2079,0.2072,0.2072,0.2077,0.2075,0.2073,0.2069,0.2064,0.2064,0.2067,0.2066,0.2062,0.2062,0.2062,0.2102,0.2061,0.2061,0.2061,0.2111,0.2113,0.2114,0,0,0,0,0,0,0.2083,0.2082,0.2072,0.2077,0.2077,0.2075,0.207,0.2069,0.2077,0.2066,0.2065,0.2077,0.2062,0.2062,0.2078,0.21,0.2061,0.2061,0.211,0.2112,0.2114,0.2158,0,0,0,0,0,0,0.2083,0.2081,0.2084,0.2077,0.2076,0.2082,0.207,0.2069,0.2079,0.2078,0.2075,0.2074,0.2062,0.2078,0.2078,0.21,0.2061,0.2108,0.211,0.2113,0.2154,0.2161,0.2166,0,0,0,0,0,0.2083,0.2085,0.2084,0.2084,0.2078,0.2082,0.2082,0.208,0.2079,0.2086,0.2088,0.2074,0.2094,0.2079,0.2078,0.2101,0.2107,0.211,0.2113,0.2152,0.216,0.2166,0,0,0,0,0,0,0.209,0.2084,0.2083,0.2083,0.2087,0.2082,0.2089,0.2089,0.2095,0.2099,0.2087,0.2087,0.2113,0.2102,0.2086,0.2125,0.21,0.2103,0.213,0.2137,0.2143,0.2145,0.2061,0,0,0,0,0,0.2093,0.2093,0.2091,0.2093,0.2097,0.2097,0.2101,0.2101,0.2104,0.2106,0.2106,0.2111,0.2124,0.2126,0.2134,0.2149,0.2144,0.2166,0.2172,0.2177,0.218,0.2201,0.2209,0.2124,0.2124,0.2124,0,0,0.2096,0.2094,0.2094,0.2096,0.2099,0.2106,0.2099,0.211,0.2121,0.2106,0.2125,0.2135,0.2136,0.2158,0.2168,0.215,0.2198,0.2181,0.2185,0.2185,0.2205,0.2213,0.222,0.2126,0.2126,0.2126,0,0,0.21,0.2103,0.2104,0.211,0.212,0.2123,0.213,0.2136,0.2144,0.2161,0.2164,0.2187,0.2193,0.2204,0.2208,0.2252,0.2235,0.2258,0.2281,0.2302,0.2309,0.2315,0.2315,0.2321,0.2254,0.2254,0.2254,0,0.2107,0.2103,0.2107,0.2112,0.2119,0.2132,0.2139,0.2153,0.2165,0.2178,0.2173,0.2212,0.2215,0.2248,0.2267,0.2265,0.2267,0.2251,0.2309,0.2315,0.2321,0.2319,0.2325,0.2256,0.2256,0.2256,0.2255,0,0.2106,0.2111,0.2116,0.2125,0.2135,0.2147,0.2164,0.2185,0.2199,0.2211,0.2253,0.2264,0.2284,0.2297,0.2293,0.234,0.2326,0.2319,0.2288,0.2332,0.2327,0.2332,0.226,0.2259,0.2258,0.2258,0,0,0.2096,0.2112,0.2114,0.2118,0.2143,0.2148,0.2181,0.2208,0.2233,0.2258,0.2286,0.2325,0.2339,0.2346,0.2355,0.2376,0.2417,0.2366,0.2366,0.2361,0.2453,0.2385,0.2384,0.2422,0.2424,0.2425,0.2432,0,0.2095,0.2101,0.2113,0.2127,0.2132,0.216,0.2187,0.2219,0.225,0.2285,0.2317,0.235,0.2355,0.2372,0.2398,0.2419,0.2434,0.2415,0.2416,0.2416,0.2346,0.2389,0.2181,0.2166,0.2437,0.2438,0.2439,0,0.2082,0.209,0.2098,0.2123,0.2129,0.2146,0.2191,0.222,0.2281,0.2307,0.2352,0.2376,0.2425,0.2416,0.2468,0.2458,0.246,0.2468,0.2468,0.2392,0.2358,0.2168,0.2165,0.2447,0.2446,0.2445,0.2445,0,0.2054,0.2076,0.2081,0.2088,0.2124,0.214,0.217,0.2227,0.226,0.2328,0.2357,0.2412,0.2446,0.2468,0.2493,0.2484,0.2537,0.252,0.2457,0.2451,0.2267,0.2243,0.2548,0.2548,0.2548,0.2548,0.2548,0,0.2034,0.2038,0.2069,0.207,0.2089,0.2124,0.2161,0.2203,0.2268,0.2307,0.237,0.2405,0.2465,0.25,0.2505,0.25,0.2546,0.2468,0.2455,0.2276,0.2254,0.2491,0.2485,0.2548,0.2548,0.2548,0.2548,0,0.1995,0.2015,0.2021,0.2058,0.2072,0.2087,0.2149,0.2176,0.2252,0.2305,0.2328,0.2415,0.2459,0.2499,0.2538,0.2511,0.251,0.2492,0.2272,0.2233,0.2403,0.2399,0.2415,0.2413,0.2411,0.241,0.2408,0,0.1972,0.1971,0.2003,0.2008,0.2024,0.2058,0.2079,0.2157,0.2188,0.2299,0.2313,0.239,0.241,0.2447,0.2412,0.2393,0.2474,0.2197,0.2142,0.2407,0.2393,0.2392,0.239,0.1912,0.1906,0.1902,0.1899,0,0.1933,0.1946,0.1952,0.1961,0.1976,0.1994,0.2033,0.2055,0.2145,0.2188,0.2233,0.2259,0.2296,0.2184,0.2184,0.215,0.2182,0.2108,0.2445,0.1984,0.1934,0.192,0.1935,0.186,0.1864,0.1867,0.1869,0.1871,0.1903,0.1895,0.1902,0.1901,0.1917,0.1912,0.1898,0.194,0.1965,0.1996,0.2086,0.2054,0.2061,0.1943,0.1868,0.1808,0.1963,0.1869,0.1881,0.1898,0.1845,0.1796,0.1685,0.1687,0.169,0.1692,0.1694,0,0.1851,0.1844,0.184,0.1823,0.1798,0.1839,0.1845,0.1807,0.1787,0.1829,0.1838,0.1674,0.1588,0.1599,0.1429,0.1414,0.1394,0.1366,0.1318,0.1357,0.1391,0.1312,0.101,0.1008,0.1006,0.1004,0,0,0.1824,0.1788,0.1774,0.1703,0.1695,0.1629,0.1613,0.1571,0.1564,0.1505,0.146,0.1554,0.1567,0.1289,0.1232,0.1088,0.1223,0.1046,0.1594,0.1578,0.161,0.168,0.1601,0,0,0,0,0]},{"header":{"parameterUnit":"m.s-1","parameterCategory":2,"la1":30.2991,"la2":30.254,"lo1":-89.0895,"lo2":-89.0444,"dy":0.0017,"dx":0.0017,"nx":28,"ny":28,"refTime":"2025-04-28T03:00:00:Z","depth":"2","parameterNumber":3,"parameterNumberName":"V-component_of_CURRENTS"},"data":[0,0,0,0,0,0,0,0,0,0,0,0,0,0,0,0,0,0,0,0,0,0,0,0,0,0,0,0,0,0,0,0,0,0,0,0,0,0,0,0,0,0,0,0,0,0,0,0,0,0,0,0,0,0,0,0,0,0,0.0215,0.0215,0,0.0216,0.0216,0.0216,0.021,0.021,0.021,0.021,0.0205,0.0205,0.0205,0,0,0,0,0,0,0,0,0,0,0,0,0,0.0184,0.0185,0.0215,0.0215,0.0215,0.0216,0.0216,0.0216,0.021,0.021,0.021,0.021,0.0205,0.0205,0.0205,0,0,0,0,0,0,0,0,0,0,0,0,0,0.0192,0.0185,0.0215,0.0213,0.0213,0.0216,0.0216,0.0216,0.021,0.021,0.021,0.021,0.0205,0.0205,0.0205,0.0206,0,0,0.0205,0.0205,0,0,0,0,0,0,0,0,0.0191,0.0193,0.0214,0.0214,0.0214,0.0214,0.0203,0.0213,0.021,0.021,0.021,0.021,0.0208,0.0208,0.0207,0.0206,0.0206,0.0205,0.0205,0.0205,0.0205,0,0,0,0,0,0,0,0.0191,0.0193,0.0214,0.0214,0.0214,0.0204,0.0205,0.0205,0.0209,0.021,0.021,0.0212,0.0208,0.0207,0.0207,0.0206,0.0205,0.0205,0.0205,0.0205,0.0209,0.021,0,0,0,0,0,0,0.0194,0.0192,0.0214,0.0215,0.0203,0.0205,0.0206,0.0213,0.0209,0.0209,0.0212,0.0212,0.0207,0.0207,0.0207,0.0225,0.0205,0.0205,0.0205,0.0209,0.0209,0.021,0,0,0,0,0,0,0.0194,0.0197,0.0214,0.0204,0.0206,0.0206,0.0213,0.0213,0.0215,0.0211,0.021,0.0215,0.0207,0.0207,0.0212,0.0224,0.0205,0.0205,0.0209,0.0209,0.021,0.0251,0,0,0,0,0,0,0.0193,0.0197,0.0202,0.0204,0.0206,0.0222,0.0214,0.0213,0.0217,0.0216,0.0213,0.0212,0.0207,0.0212,0.0212,0.0224,0.0204,0.0209,0.0209,0.0209,0.0249,0.0253,0.0256,0,0,0,0,0,0.0192,0.0203,0.0202,0.0205,0.0214,0.0222,0.0223,0.0221,0.0217,0.0222,0.0219,0.0213,0.0214,0.0212,0.0212,0.0224,0.0209,0.0209,0.0209,0.0248,0.0252,0.0255,0,0,0,0,0,0,0.0192,0.0204,0.0203,0.0217,0.0221,0.0222,0.0228,0.0224,0.0226,0.0226,0.0218,0.0217,0.0225,0.0216,0.0215,0.0225,0.0209,0.0209,0.0238,0.0242,0.0245,0.0256,0.0204,0,0,0,0,0,0.0195,0.0207,0.0213,0.0224,0.0228,0.0227,0.023,0.023,0.0231,0.0232,0.0231,0.0227,0.0226,0.0228,0.0225,0.0233,0.0217,0.0238,0.0241,0.0244,0.0252,0.0237,0.024,0.0211,0.0211,0.0211,0,0,0.0197,0.0206,0.0212,0.0225,0.0228,0.0243,0.0229,0.0238,0.0251,0.0231,0.0248,0.0238,0.0229,0.0238,0.0241,0.0234,0.0243,0.0245,0.0247,0.0254,0.0238,0.0241,0.0244,0.0211,0.0211,0.0211,0,0,0.0212,0.0217,0.0234,0.0242,0.0252,0.0255,0.0259,0.0265,0.0266,0.0276,0.0266,0.0265,0.0265,0.0264,0.0261,0.0278,0.0258,0.0275,0.0303,0.0289,0.0292,0.0294,0.0273,0.0272,0.0278,0.0278,0.0278,0,0.0214,0.0239,0.0238,0.0258,0.0272,0.0263,0.0286,0.0287,0.0293,0.0302,0.0287,0.0289,0.0278,0.0292,0.0296,0.0287,0.0272,0.0293,0.0294,0.0296,0.0297,0.0275,0.0274,0.028,0.028,0.028,0.0279,0,0.0245,0.0265,0.0276,0.0302,0.0313,0.0331,0.0336,0.0346,0.0344,0.0347,0.0356,0.0336,0.0339,0.0331,0.0319,0.0328,0.0311,0.0299,0.0288,0.0303,0.0278,0.0277,0.0283,0.0282,0.0282,0.0281,0,0,0.0256,0.0292,0.0297,0.032,0.0341,0.0356,0.0377,0.0399,0.0423,0.041,0.0432,0.0417,0.0404,0.0399,0.038,0.0365,0.0355,0.034,0.0338,0.0324,0.0319,0.0305,0.0301,0.0344,0.0344,0.0344,0.0296,0,0.0284,0.0332,0.0341,0.0387,0.0415,0.042,0.0445,0.0461,0.0467,0.0485,0.0458,0.0467,0.043,0.043,0.0411,0.0375,0.0354,0.0369,0.0303,0.0301,0.029,0.0301,0.0314,0.0273,0.0295,0.0295,0.0294,0,0.0315,0.0346,0.0397,0.0444,0.0457,0.048,0.0526,0.0548,0.0565,0.0568,0.0565,0.0542,0.0524,0.0483,0.0425,0.0436,0.0382,0.0344,0.0341,0.0314,0.0284,0.0262,0.027,0.0292,0.0292,0.0292,0.0292,0,0.0335,0.0386,0.043,0.0447,0.0496,0.052,0.0546,0.0577,0.0611,0.0621,0.0641,0.0607,0.0597,0.0528,0.0443,0.0435,0.0371,0.0349,0.0282,0.0279,0.0272,0.0269,0.0301,0.0301,0.0301,0.0301,0.0301,0,0.0367,0.0403,0.0444,0.0472,0.0532,0.0552,0.0617,0.0636,0.0674,0.0727,0.0686,0.0706,0.0608,0.0557,0.0467,0.0375,0.0387,0.0291,0.027,0.0286,0.0285,0.0286,0.0285,0.03,0.03,0.03,0.0301,0,0.0385,0.0411,0.0467,0.0523,0.0545,0.0589,0.0666,0.0715,0.0741,0.0805,0.0809,0.0785,0.0724,0.0616,0.0505,0.0416,0.0319,0.0278,0.0299,0.0282,0.0228,0.023,0.0203,0.0202,0.0201,0.0201,0.02,0,0.04,0.0431,0.0503,0.0543,0.0571,0.064,0.0695,0.0744,0.0802,0.0858,0.0891,0.0849,0.0834,0.0664,0.0507,0.0349,0.0319,0.024,0.0226,0.0238,0.022,0.0223,0.0225,0.0226,0.0226,0.0226,0.0226,0,0.043,0.0452,0.05,0.0582,0.0643,0.0722,0.0801,0.0856,0.0923,0.0973,0.1022,0.1009,0.0866,0.0716,0.0498,0.0385,0.0266,0.023,0.0244,0.0252,0.0257,0.024,0.0243,0.0224,0.0224,0.0224,0.0224,0.0224,0.0449,0.0485,0.0546,0.0624,0.0698,0.0792,0.0861,0.0946,0.1037,0.1117,0.1108,0.1088,0.0925,0.0651,0.0466,0.0262,0.0276,0.0186,0.0188,0.019,0.0204,0.0208,0.0168,0.0168,0.0167,0.0167,0.0167,0,0.0473,0.0517,0.0587,0.0679,0.0759,0.08,0.0925,0.0993,0.1097,0.1163,0.12,0.1028,0.0867,0.0666,0.0381,0.0211,0.0197,0.0136,0.0161,0.0164,0.0167,0.018,0.0137,0.0137,0.0136,0.0136,0,0,0.0487,0.0547,0.0582,0.0707,0.0778,0.0888,0.0961,0.1058,0.1127,0.1183,0.1174,0.1159,0.0922,0.0704,0.048,0.0311,0.0271,0.0267,0.031,0.0371,0.0375,0.0216,0.0243,0,0,0,0,0]}],[{"header":{"parameterUnit":"m.s-1","parameterCategory":2,"la1":30.2991,"la2":30.254,"lo1":-89.0895,"lo2":-89.0444,"dy":0.0017,"dx":0.0017,"nx":28,"ny":28,"refTime":"2025-04-28T03:00:00:Z","depth":"4","parameterNumber":2,"parameterNumberName":"U-component_of_CURRENTS"},"data":[0,0,0,0,0,0,0,0,0,0,0,0,0,0,0,0,0,0,0,0,0,0,0,0,0,0,0,0,0,0,0,0,0,0,0,0,0,0,0,0,0,0,0,0,0,0,0,0,0,0,0,0,0,0,0,0,0,0,0.1255,0.1255,0,0.1273,0.1273,0.1273,0.1302,0.1303,0.1303,0.1304,0.1341,0.1342,0.1342,0,0,0,0,0,0,0,0,0,0,0,0,0,0.1243,0.1243,0.1255,0.1255,0.1256,0.1273,0.1273,0.1273,0.1302,0.1303,0.1303,0.1304,0.1341,0.1342,0.1342,0,0,0,0,0,0,0,0,0,0,0,0,0,0.1251,0.1243,0.1255,0.1273,0.1275,0.1273,0.1273,0.1273,0.1302,0.1303,0.1304,0.1305,0.1341,0.1341,0.1342,0.1325,0,0,0.1344,0.1344,0,0,0,0,0,0,0,0,0.1251,0.1252,0.127,0.1272,0.1274,0.1288,0.1283,0.1292,0.1301,0.129,0.1304,0.1305,0.1326,0.1327,0.1326,0.1327,0.1329,0.1344,0.1344,0.1344,0.1344,0,0,0,0,0,0,0,0.125,0.1251,0.126,0.1271,0.1273,0.128,0.1282,0.1284,0.1301,0.1291,0.1293,0.1298,0.1327,0.1325,0.1327,0.1329,0.1344,0.1344,0.1345,0.1345,0.1405,0.1407,0,0,0,0,0,0,0.1251,0.125,0.126,0.1261,0.1267,0.128,0.1282,0.1281,0.13,0.1305,0.1297,0.1299,0.1324,0.1326,0.1328,0.1385,0.1344,0.1345,0.1345,0.1404,0.1406,0.1407,0,0,0,0,0,0,0.125,0.1251,0.1259,0.1258,0.126,0.1279,0.1278,0.1281,0.1309,0.1305,0.131,0.1325,0.1325,0.1328,0.1357,0.1384,0.1345,0.1346,0.1403,0.1405,0.1406,0.145,0,0,0,0,0,0,0.1249,0.125,0.1264,0.1258,0.126,0.1276,0.1277,0.1281,0.1309,0.1313,0.133,0.1333,0.1326,0.1356,0.1357,0.1384,0.1346,0.1401,0.1404,0.1406,0.1447,0.1454,0.1459,0,0,0,0,0,0.1249,0.1256,0.1264,0.1267,0.1273,0.1276,0.1279,0.1294,0.131,0.1323,0.1339,0.1334,0.1372,0.1357,0.1358,0.1386,0.14,0.1403,0.1406,0.1445,0.1452,0.1459,0,0,0,0,0,0,0.1259,0.126,0.1269,0.1277,0.1287,0.1283,0.1301,0.131,0.1332,0.1347,0.1345,0.1349,0.1387,0.138,0.1363,0.1412,0.1387,0.1391,0.1417,0.1424,0.143,0.1439,0.1346,0,0,0,0,0,0.1267,0.1275,0.1276,0.1288,0.1296,0.1305,0.1315,0.1326,0.1337,0.135,0.1363,0.138,0.1394,0.1405,0.1415,0.1436,0.1437,0.1457,0.1463,0.1468,0.1477,0.1506,0.1515,0.1417,0.1417,0.1416,0,0,0.1275,0.1278,0.1285,0.1293,0.1303,0.1313,0.1314,0.1337,0.1354,0.1349,0.139,0.1404,0.1405,0.1433,0.145,0.1434,0.1496,0.1472,0.1476,0.1483,0.151,0.152,0.1528,0.1419,0.1418,0.1418,0,0,0.1284,0.13,0.1308,0.1316,0.1337,0.1341,0.1355,0.1369,0.139,0.1419,0.1427,0.146,0.1477,0.1486,0.149,0.1534,0.1529,0.1543,0.1577,0.1604,0.1613,0.162,0.1628,0.1635,0.1543,0.1543,0.1543,0,0.13,0.1302,0.1313,0.1321,0.1333,0.1357,0.1368,0.1387,0.1414,0.1436,0.1443,0.1495,0.15,0.1532,0.1552,0.1548,0.1558,0.1547,0.1612,0.1619,0.1626,0.1632,0.164,0.1545,0.1545,0.1545,0.1544,0,0.13,0.1317,0.1325,0.1342,0.1358,0.1375,0.1397,0.143,0.1462,0.148,0.1536,0.1549,0.1581,0.159,0.1584,0.1639,0.1628,0.1618,0.1592,0.1638,0.1642,0.1649,0.1549,0.1548,0.1547,0.1546,0,0,0.1295,0.132,0.1327,0.1339,0.1372,0.138,0.1422,0.1457,0.1494,0.1536,0.158,0.1617,0.1644,0.1651,0.1659,0.1684,0.1738,0.1679,0.1679,0.1683,0.1795,0.1665,0.166,0.1745,0.1746,0.1748,0.1776,0,0.1297,0.1311,0.1327,0.1355,0.1364,0.1402,0.1435,0.1477,0.1522,0.1573,0.1611,0.1657,0.1661,0.1689,0.1719,0.1739,0.1762,0.1731,0.1753,0.1753,0.1629,0.1665,0.1753,0.1781,0.1783,0.1784,0.1785,0,0.1283,0.1297,0.132,0.1358,0.1369,0.1397,0.146,0.1495,0.157,0.1608,0.167,0.1702,0.1762,0.1752,0.1816,0.1801,0.1809,0.1814,0.1815,0.1684,0.1636,0.1728,0.1798,0.1797,0.1796,0.1795,0.1794,0,0.1254,0.129,0.1311,0.1322,0.1371,0.1404,0.1443,0.1514,0.1555,0.1645,0.1689,0.1755,0.1804,0.1833,0.1859,0.1849,0.1913,0.1892,0.1777,0.1767,0.1857,0.1849,0.1932,0.1932,0.1932,0.1932,0.1932,0,0.1227,0.1248,0.1305,0.1314,0.1353,0.1397,0.1457,0.1507,0.1588,0.1636,0.1716,0.1756,0.1834,0.1875,0.188,0.185,0.1932,0.1788,0.1769,0.1874,0.1867,0.1862,0.1853,0.1933,0.1933,0.1932,0.1932,0,0.1184,0.1221,0.1249,0.1312,0.1338,0.1371,0.1458,0.1493,0.1587,0.1653,0.1687,0.1783,0.183,0.1877,0.1922,0.1865,0.1851,0.1818,0.1927,0.1913,0.168,0.1674,0.1684,0.168,0.1677,0.1673,0.1671,0,0.1157,0.1168,0.1242,0.1263,0.1297,0.1357,0.1391,0.1484,0.152,0.1647,0.1663,0.1753,0.18,0.1758,0.1817,0.1805,0.1783,0.1759,0.1717,0.1676,0.1657,0.1657,0.1655,0.1665,0.1664,0.1663,0.1662,0,0.1108,0.115,0.1174,0.1217,0.1258,0.1292,0.1352,0.1367,0.1469,0.1573,0.1592,0.1608,0.1655,0.1673,0.1681,0.167,0.1764,0.1721,0.1727,0.1688,0.1653,0.1637,0.164,0.165,0.1651,0.1653,0.1653,0,0.108,0.1085,0.1125,0.1151,0.1199,0.1202,0.1245,0.1272,0.1318,0.1452,0.1454,0.1544,0.1637,0.1603,0.161,0.1589,0.1558,0.1493,0.1511,0.1526,0.146,0.1391,0.1295,0,0,0,0,0,0.1042,0.1032,0.105,0.1064,0.1107,0.1134,0.1201,0.1244,0.1347,0.1318,0.1379,0.1407,0.1415,0.1462,0.1407,0.1538,0.1567,0.1466,0.1503,0.1579,0.1594,0.153,0,0,0,0,0,0,0.1012,0.1029,0.102,0.0985,0.0983,0.1012,0.1052,0.1119,0.1106,0.122,0.1232,0.1315,0.1347,0.1433,0.1381,0.1393,0.1382,0.1524,0.1519,0.1571,0.1584,0.1596,0.1535,0,0,0,0,0]},{"header":{"parameterUnit":"m.s-1","parameterCategory":2,"la1":30.2991,"la2":30.254,"lo1":-89.0895,"lo2":-89.0444,"dy":0.0017,"dx":0.0017,"nx":28,"ny":28,"refTime":"2025-04-28T03:00:00:Z","depth":"4","parameterNumber":3,"parameterNumberName":"V-component_of_CURRENTS"},"data":[0,0,0,0,0,0,0,0,0,0,0,0,0,0,0,0,0,0,0,0,0,0,0,0,0,0,0,0,0,0,0,0,0,0,0,0,0,0,0,0,0,0,0,0,0,0,0,0,0,0,0,0,0,0,0,0,0,0,0.0153,0.0153,0,0.0157,0.0157,0.0157,0.016,0.016,0.0161,0.0161,0.0166,0.0166,0.0166,0,0,0,0,0,0,0,0,0,0,0,0,0,0.0129,0.013,0.0153,0.0153,0.0153,0.0157,0.0157,0.0157,0.016,0.016,0.0161,0.0161,0.0165,0.0166,0.0166,0,0,0,0,0,0,0,0,0,0,0,0,0,0.0136,0.013,0.0153,0.0156,0.0156,0.0157,0.0157,0.0157,0.016,0.016,0.0161,0.0161,0.0165,0.0166,0.0166,0.0162,0,0,0.0166,0.0166,0,0,0,0,0,0,0,0,0.0136,0.0137,0.0156,0.0156,0.0156,0.0159,0.015,0.0159,0.016,0.0158,0.0161,0.0161,0.0164,0.0164,0.0163,0.0163,0.0163,0.0166,0.0166,0.0166,0.0166,0,0,0,0,0,0,0,0.0135,0.0137,0.0154,0.0156,0.0156,0.015,0.0152,0.0151,0.0159,0.0158,0.0159,0.016,0.0164,0.0163,0.0163,0.0163,0.0166,0.0166,0.0166,0.0166,0.0168,0.0169,0,0,0,0,0,0,0.0137,0.0137,0.0154,0.0154,0.0147,0.0151,0.0152,0.0157,0.0159,0.016,0.016,0.016,0.0163,0.0163,0.0164,0.0178,0.0166,0.0166,0.0166,0.0168,0.0168,0.0169,0,0,0,0,0,0,0.0137,0.0139,0.0154,0.0146,0.0147,0.0151,0.0157,0.0157,0.0162,0.0161,0.0161,0.0165,0.0163,0.0164,0.017,0.0178,0.0166,0.0166,0.0168,0.0168,0.0169,0.0197,0,0,0,0,0,0,0.0136,0.0139,0.0144,0.0146,0.0148,0.0159,0.0157,0.0157,0.0162,0.0163,0.0165,0.0165,0.0163,0.0169,0.017,0.0178,0.0166,0.0168,0.0168,0.0168,0.0196,0.0198,0.0199,0,0,0,0,0,0.0135,0.0143,0.0144,0.0146,0.0154,0.016,0.016,0.0163,0.0162,0.0167,0.0168,0.0165,0.017,0.017,0.017,0.0178,0.0168,0.0168,0.0168,0.0195,0.0197,0.0199,0,0,0,0,0,0,0.0135,0.0144,0.0145,0.0156,0.0159,0.0161,0.0166,0.0165,0.0169,0.0171,0.0168,0.0169,0.0176,0.0171,0.0171,0.0178,0.0168,0.0168,0.0187,0.019,0.0192,0.0199,0.0166,0,0,0,0,0,0.0137,0.0147,0.0151,0.016,0.0163,0.0164,0.0167,0.0169,0.0172,0.0174,0.0176,0.0176,0.0175,0.0178,0.0177,0.0183,0.017,0.0187,0.0188,0.019,0.0196,0.0179,0.018,0.0169,0.0169,0.0169,0,0,0.0139,0.0145,0.0151,0.016,0.0164,0.0175,0.0167,0.0174,0.0184,0.0173,0.0189,0.0183,0.0177,0.0185,0.0187,0.0183,0.0186,0.019,0.0192,0.0196,0.018,0.0181,0.0182,0.0169,0.0169,0.0169,0,0,0.0149,0.0154,0.0166,0.0173,0.0181,0.0184,0.0187,0.0193,0.0196,0.0205,0.02,0.0199,0.0202,0.02,0.0199,0.0209,0.0195,0.0208,0.0227,0.0211,0.0212,0.0213,0.0196,0.0195,0.021,0.021,0.021,0,0.015,0.0169,0.0169,0.0184,0.0195,0.019,0.0207,0.0209,0.0216,0.0223,0.0215,0.0216,0.021,0.0217,0.022,0.0214,0.0202,0.0221,0.0215,0.0215,0.0215,0.0197,0.0196,0.0212,0.0212,0.0211,0.0211,0,0.0172,0.0188,0.0196,0.0216,0.0224,0.0239,0.0243,0.0252,0.0253,0.0255,0.0261,0.0246,0.025,0.0243,0.0236,0.0238,0.0228,0.0218,0.0211,0.0218,0.0199,0.0197,0.0214,0.0213,0.0213,0.0212,0,0,0.0178,0.0206,0.0211,0.0228,0.0245,0.0257,0.0273,0.029,0.0308,0.0299,0.0315,0.0302,0.0294,0.029,0.0276,0.026,0.0247,0.0244,0.0242,0.0231,0.0213,0.02,0.0196,0.0238,0.0238,0.0237,0.0198,0,0.0197,0.0233,0.0241,0.0277,0.0298,0.0304,0.0324,0.0336,0.034,0.0354,0.0331,0.0339,0.0311,0.0314,0.0294,0.0264,0.0244,0.0259,0.0204,0.0203,0.0193,0.0194,0.0237,0.0196,0.0196,0.0196,0.0195,0,0.0218,0.0242,0.028,0.0318,0.0328,0.0348,0.0383,0.0401,0.0413,0.0416,0.0412,0.0394,0.0377,0.0347,0.0295,0.0307,0.0264,0.0231,0.0228,0.0207,0.0186,0.0187,0.0191,0.0192,0.0192,0.0192,0.0192,0,0.0229,0.0269,0.0303,0.0317,0.0357,0.0377,0.04,0.0423,0.0449,0.0457,0.0472,0.0441,0.0435,0.0375,0.0308,0.0304,0.0242,0.0227,0.017,0.0168,0.018,0.018,0.0182,0.0182,0.0182,0.0182,0.0182,0,0.0249,0.0277,0.0314,0.0335,0.0383,0.0401,0.0453,0.0469,0.0499,0.0537,0.0507,0.0518,0.0442,0.0397,0.0324,0.0245,0.0254,0.0175,0.0158,0.0192,0.0193,0.0178,0.0178,0.018,0.0181,0.0181,0.0181,0,0.0256,0.028,0.0323,0.0371,0.0391,0.0427,0.0493,0.053,0.0553,0.0598,0.0602,0.0579,0.0526,0.044,0.0346,0.0275,0.0192,0.0158,0.0204,0.019,0.0123,0.0125,0.0094,0.0093,0.0093,0.0092,0.0092,0,0.0263,0.0287,0.0349,0.0383,0.0409,0.0467,0.0513,0.0554,0.0596,0.0635,0.0655,0.062,0.059,0.0452,0.0354,0.0213,0.0185,0.0134,0.0122,0.0128,0.0115,0.0118,0.0121,0.0091,0.009,0.009,0.009,0,0.0278,0.03,0.0337,0.0406,0.0459,0.0524,0.0588,0.062,0.0672,0.0691,0.0698,0.0631,0.0571,0.0456,0.0348,0.0243,0.0163,0.0126,0.0127,0.0115,0.0123,0.0112,0.0115,0.0088,0.0088,0.0088,0.0088,0,0.0288,0.0315,0.0365,0.0427,0.0495,0.056,0.0596,0.0646,0.0687,0.0724,0.0723,0.0658,0.0624,0.0473,0.0373,0.027,0.0236,0.0184,0.018,0.0182,0.0213,0.0236,0.0225,0,0,0,0,0,0.0298,0.0328,0.0384,0.0452,0.052,0.0561,0.0639,0.0672,0.0718,0.0726,0.0727,0.0669,0.0532,0.0477,0.0373,0.0348,0.0211,0.0219,0.0147,0.0075,0.0078,0.0098,0,0,0,0,0,0,0.0304,0.0352,0.0379,0.0461,0.051,0.0588,0.0639,0.0673,0.068,0.0707,0.0641,0.062,0.0491,0.059,0.0363,0.0334,0.0267,0.0163,0.016,0.0074,0.0076,0.0078,0.01,0,0,0,0,0]}]]